Location: Capvern
(43.1036°N, 0.3160°E)
Time: 04:44:54
(UTC+00:00)

H-2A R/B - Pass Details

Date: 16 October 2021
Orbit: 732 x 837 km, 98.2° (Epoch: 02 December)

Event Time Altitude Azimuth Distance (km) Brightness Sun altitude
Rises 18:23:00 0° 177° (S) 3,295 5.3 -13.3°
Reaches altitude 10° 18:25:20 10° 182° (S) 2,384 4.6 -13.7°
Maximum altitude 18:30:32 57° 260° (W) 969 2.9 -14.7°
Drops below altitude 10° 18:35:53 10° 339° (NNW) 2,449 4.9 -15.7°
Sets 18:38:20 0° 343° (NNW) 3,394 5.6 -16.1°
